Showing default

FENGYUN 2B, 26382

Orbit data source: Space-Track

FENGYUN 2B, 26382 is a payload satellite owned by CNMSC (CN) in GEO that was launched on Sun, 25 Jun 2000 UTC via a CHANG ZHENG 3 launch vehicle from the Xichang Space Center, China (XSC). Payload-class satellites include a variety of spacecraft equipped with specific instruments for various scientific and technological missions. These include communications satellites like Starlink; space stations such as the ISS; scientific satellites like the Hubble; Earth observation satellites from companies like Planet Labs, Umbra, and HawkEye 360; GPS; miniature CubeSats for education and research; and military/defense satellites.

Not visible in the next 10 days
Identifier
26382, 2000-032A
Orbit
GEO
Country
Flag of CNCN / PRC
Related business
Manufacturer
SISE
Mission
Non-operational Civil Weather
Bus & Motor
FY-2, SHANXI AKM
Mass
651 kg wet, ~600 kg dry
Launch date (UTC)
2000-06-25 (25 years ago)
Launch vehicle
CHANG ZHENG 3
Launch site
Xichang Space Center, China (XSC)
Object type
Payload
Rocket body
Debris
Shape & HBR
Cyl, 1.5 m
Radar Cross Section
6.680 m², Large (>1 m²)

Expand to show TLE details & history
Last TLE update: 16 hours ago

TLE from 16 hours ago
0 FENGYUN 2B
1 26382U 00032A   25288.66131222 -.00000344  00000-0  00000+0 0  9995
2 26382  13.0300  18.6737 0003031 255.7042 124.9379  1.00100299 92484
Epoch: 2025-10-15T15:52Z
TLE epoch observation values (Epoch: 2025-10-15T15:52:17.375Z)
Latitude
4.56805°
Longitude
136.33542°
Altitude
35,841.136 km
Speed
3.072 km/s
True Right ascension
02h 35m 21s
True Declination
4° 33' 48"
Sunlit
Object was in daylight at epoch
Visualization orbit readout
Latitude
Unknown
Longitude
Unknown
Altitude
Unknown
Speed
Unknown
Apparent Right ascension
Unknown
Apparent Declination
Unknown
Sunlit
N/A
Visualization observer readout
Local Sidereal Time
02:57:29
Azimuth
Unknown
Elevation
Unknown
Doppler factor
Unknown
Orbital elements
Apogee altitude
35,848.522 km
Perigee altitude
35,822.932 km
Semi-major axis
42,213.864 km
Eccentricity
0.0003
Inclination
13.03°
RAAN
18.6737°
Arg. of periapsis
255.7042°
True anomaly
124.96637°
Mean anomaly
124.9379°
Eccentric anomaly
124.95213°
Mean motion
0.25024 °/min
Orbital period
1,438.61 mins
BSTAR
0
Loading maneuver chart data...
Computing Atmospheric mass density...
Loading historical data...
Loading historical data...
Loading historical data...
Loading historical data...
Loading historical data...
Loading historical data...
Loading historical data...
Other satellites on launch #32 in the year 2000 (2000-06-25 UTC)

Documentation

Showing up to 5 results
|